User: anonymous   Login
Location: Goheenville
(40.9070°N, 79.3720°W)
Time: 10:16:53
(UTC-05:00)
Language:

NOAA 11 - Orbit

View from above orbital plane
View from above orbital plane
View from above satellite
View from above satellite

Ground track
Ground track

The orbit data is extracted from the following two-line orbital elements,

1 19531U 88089A   17022.90206526 -.00000011 +00000-0 +15650-4 0  9998
2 19531 098.5738 087.1758 0012326 095.3353 264.9227 14.15202090461950
Epoch (UTC): 22 January 2017 21:38:58
Eccentricity: 0.0012326
inclination: 98.5738°
perigee height: 833 km
apogee height: 850 km
right ascension of ascending node: 87.1758°
argument of perigee: 95.3353°
revolutions per day: 14.15202090
mean anomaly at epoch: 264.9227°
orbit number at epoch: 46195

The dashed part of the orbit path shows where the satellite is in the earth's shadow,  

DLR